Temperature
19 19 19 18 18 18 18 18 17 17 16 16 16 16 15 15 15 15 15 15 14 14 14 14 14 14 14 15 15 15 15 15 15 16 16 16 16 16 16 15 15 15 15
19 19 19 18 18 18 18 18 17 17 17 16 16 16 16 15 15 15 15 14 14 14 14 14 14 14 14 14 14 14 14 14 15 16 16 16 16 16 15 15 15 15 15
19 19 18 18 18 18 18 18 17 17 17 16 16 16 15 15 15 15 15 14 14 14 14 13 13 13 13 14 14 14 14 14 14 15 15 15 15 15 15 15 14 14 14
19 19 18 18 18 18 18 17 17 17 17 16 16 16 15 15 15 15 15 14 14 14 14 13 13 13 13 13 13 13 13 13 13 14 14 15 15 15 15 14 14 14 14
18 18 18 17 17 17 17 17 17 17 16 16 16 15 15 15 15 15 15 14 14 14 14 13 13 13 13 13 13 13 13 13 13 13 13 14 14 14 14 14 14 14 14
18 17 17 16 17 17 17 17 16 16 16 16 16 15 15 15 15 15 15 15 14 14 14 14 13 13 13 13 12 12 12 13 13 13 13 13 13 14 14 14 14 13 13
17 16 16 16 16 16 16 16 16 16 15 15 15 15 15 15 15 15 15 15 15 14 14 14 14 13 13 13 13 12 12 12 12 12 12 13 13 13 13 14 14 14 14
15 15 15 15 15 15 15 15 15 15 15 15 15 15 15 15 15 15 15 15 15 14 14 14 14 14 14 13 13 13 13 13 13 13 13 13 13 13 13 14 14 14 13
14 14 14 14 15 15 15 15 14 14 14 14 14 14 15 15 15 15 14 14 14 14 14 14 14 14 14 14 14 13 13 13 13 13 13 13 13 13 14 14 14 13 14
13 13 13 13 13 13 14 13 13 13 13 13 13 14 14 14 14 14 14 14 14 14 14 14 14 14 14 14 14 14 14 14 13 13 13 13 13 13 13 13 13 13 13
12 12 12 12 12 12 12 12 12 12 12 12 12 13 13 13 13 14 14 14 14 14 14 14 14 14 14 14 14 14 14 14 13 13 13 13 13 13 13 13 13 13 13
12 12 12 12 11 11 12 12 12 12 12 12 12 12 12 12 13 13 13 13 13 13 13 13 13 13 13 14 14 14 14 13 13 13 13 13 13 13 13 13 13 13 13
13 12 12 11 11 11 11 11 11 11 12 12 12 12 12 12 12 12 12 12 12 12 12 12 13 13 13 13 13 13 13 13 13 13 13 12 12 12 12 12 12 12 12
13 12 12 11 11 11 11 11 11 11 11 11 11 11 11 11 11 11 11 11 11 11 12 12 12 12 12 12 12 12 12 12 12 12 12 12 12 12 11 11 11 11 11
13 12 12 12 11 11 11 11 11 11 11 11 11 11 11 11 11 11 11 11 11 11 11 11 11 12 12 12 12 12 12 12 12 11 11 11 11 11 11 11 11 11 11
13 12 12 12 11 11 11 11 11 11 10 10 10 10 11 11 11 11 11 11 11 11 11 11 11 11 11 11 11 11 11 11 11 11 11 11 11 11 11 10 10 10 10
13 12 12 12 11 11 11 11 11 10 10 10 10 10 10 10 10 10 10 10 10 10 10 11 11 11 11 11 11 11 11 10 10 10 10 10 10 10 10 10 10 10 10
13 12 12 12 11 11 11 11 11 10 10 9 9 10 10 10 10 10 10 10 10 10 10 10 10 10 10 10 10 10 10 10 10 10 10 10 10 10 10 10 10 10 10
13 12 12 12 11 11 11 11 10 10 10 9 9 10 10 10 10 10 10 10 10 10 10 10 10 10 10 9 10 10 9 9 9 9 9 9 9 9 9 9 9 9 9
13 12 12 12 11 11 11 11 11 10 10 10 10 10 10 10 10 10 10 10 9 9 9 9 9 9 9 9 9 9 9 9 9 9 9 9 9 9 9 9 9 9 9
13 12 12 11 11 11 11 11 11 10 10 10 10 10 10 10 10 10 9 9 9 9 9 9 9 9 9 9 9 9 9 9 9 9 9 9 9 9 8 8 8 8 8
13 12 12 11 11 11 11 11 11 10 10 10 10 10 10 10 9 9 9 9 9 9 9 9 9 8 8 8 8 8 8 8 8 8 8 8 8 8 8 8 8 8 8
13 12 12 11 11 11 11 11 11 10 10 10 10 10 9 9 9 9 9 8 8 8 8 8 8 8 8 8 8 8 8 8 8 8 8 8 8 7 7 7 7 7 7
13 12 12 11 11 11 11 11 10 10 10 10 10 9 9 9 9 9 8 8 8 8 8 8 8 8 8 8 8 8 8 8 8 8 8 7 7 7 7 7 7 7 7
13 12 12 11 11 11 11 11 11 10 10 10 9 9 9 9 8 8 8 8 8 8 8 8 8 8 8 8 8 8 8 8 8 7 7 7 6 6 6 6 6 6 6
13 12 12 11 11 11 11 11 11 10 10 10 9 9 9 8 8 8 8 8 8 8 8 8 8 8 8 8 8 8 8 8 8 7 7 6 6 6 5 5 5 5 5
Wind_Speed
7 5 5 5 5 6 5 5 5 4 4 5 4 4 4 3 3 3 2 2 3 4 5 6 8 8 7 7 6 5 4 4 5 4 4 3 7 7 9 13 15 15 15
6 6 6 6 6 6 6 6 5 5 5 5 5 4 4 5 4 4 3 3 3 3 4 5 6 6 7 7 7 7 5 4 4 3 3 3 5 6 7 7 9 12 14
7 6 5 4 5 6 6 6 6 6 6 5 5 5 5 5 5 5 4 3 3 4 4 4 5 7 8 6 7 7 6 4 3 3 2 1 1 2 3 4 4 5 10
7 6 5 4 5 5 6 6 6 7 7 7 6 6 6 6 6 5 5 4 3 3 3 3 4 6 7 8 8 8 8 6 4 3 1 1 1 2 3 3 4 5 6
7 6 3 4 4 5 5 5 6 6 7 7 6 6 6 6 6 7 6 6 5 4 3 3 3 4 7 7 6 7 8 6 5 3 2 1 2 2 4 4 6 4 5
6 4 1 1 2 2 4 4 4 5 5 5 6 7 7 7 9 12 9 7 6 6 5 5 4 5 6 9 9 10 10 7 6 4 3 3 4 4 4 5 5 4 5
10 7 6 4 5 5 3 2 2 3 3 5 6 6 7 9 11 12 14 8 7 7 7 6 6 6 8 6 8 10 10 11 10 7 6 6 5 6 5 6 7 7 8
9 8 7 7 6 6 6 5 4 2 2 3 5 6 6 8 11 12 13 9 7 7 7 7 8 7 8 9 7 7 8 9 11 9 9 9 9 8 7 8 8 7 3
7 7 6 6 6 6 6 5 4 3 2 1 2 3 5 6 8 9 8 5 4 5 5 6 7 8 11 13 9 9 8 8 11 15 15 14 15 14 9 5 4 5 5
5 5 5 5 5 6 6 4 4 3 3 2 3 2 1 2 4 5 7 4 4 3 2 3 5 7 10 11 10 10 10 9 6 6 8 10 8 8 9 8 6 5 4
4 5 5 6 5 6 5 4 4 4 4 5 5 5 5 4 4 2 3 3 4 3 2 2 2 4 5 8 10 9 11 7 5 5 3 2 2 1 1 2 4 5 5
4 5 5 6 6 6 7 7 6 6 7 7 6 6 6 6 7 5 2 2 3 3 3 2 3 3 2 3 5 5 7 6 4 4 3 2 2 1 1 1 2 2 3
4 3 3 5 6 6 7 7 6 6 6 6 6 5 5 5 7 10 7 3 1 2 2 4 3 3 3 3 4 6 6 4 4 3 3 2 1 1 2 1 1 1 0
4 2 1 2 4 5 6 5 5 6 5 5 6 5 5 5 6 6 6 4 2 1 1 1 3 3 2 3 3 3 3 3 3 3 2 2 2 1 1 1 1 0 0
3 1 0 1 2 3 4 5 5 4 4 4 4 4 5 5 7 9 5 4 2 1 2 2 1 1 1 1 1 1 2 2 2 2 2 2 2 1 1 1 1 1 2
2 0 1 1 0 1 2 2 5 4 5 6 6 4 3 5 8 7 7 6 4 1 2 1 1 1 1 2 2 1 1 1 1 2 2 2 2 2 2 2 2 3 3
3 1 0 1 1 0 1 1 0 2 3 4 6 7 6 7 8 7 7 7 6 4 3 3 3 3 3 3 2 2 1 0 1 1 1 1 1 1 2 2 2 3 3
3 2 1 1 1 1 1 1 1 1 2 3 5 6 8 8 8 8 7 6 6 6 4 4 4 4 4 3 3 2 2 3 2 2 1 1 1 1 1 2 3 3 3
4 2 1 1 1 2 2 2 2 3 2 3 4 5 8 8 10 11 8 5 5 5 5 5 5 5 4 4 4 4 4 3 3 3 3 3 2 1 1 2 3 4 3
3 4 3 2 2 2 2 3 3 3 3 3 4 4 5 5 6 6 6 5 5 5 5 5 5 5 5 5 4 4 4 4 4 4 3 3 2 2 2 3 3 3 3
4 3 3 3 3 2 2 3 3 3 3 3 3 4 4 4 5 5 5 5 5 5 5 5 5 5 5 4 4 4 5 4 4 4 4 4 4 3 3 3 4 4 4
5 4 2 3 2 2 3 3 4 3 3 3 2 4 7 5 4 5 5 5 5 5 4 4 5 5 5 5 5 5 4 4 5 5 5 4 4 4 4 3 4 4 4
6 5 3 3 2 3 4 3 4 3 3 2 3 3 4 4 4 5 5 5 5 5 5 5 5 5 5 6 6 4 4 4 5 5 5 4 4 4 4 4 4 4 3
6 6 5 4 3 3 4 3 3 3 3 3 3 3 3 3 4 4 4 4 5 5 5 6 5 6 7 6 7 6 6 6 6 5 5 4 4 4 3 3 3 3 3
6 5 5 4 4 4 4 4 4 3 3 3 3 3 3 3 4 4 4 4 5 6 6 7 7 7 8 8 8 8 10 9 7 6 4 3 3 3 3 3 3 3 2
6 6 5 4 4 5 5 5 4 4 4 3 3 4 4 4 4 4 4 4 5 5 5 6 8 9 9 9 10 11 11 10 10 9 6 3 4 4 4 3 4 4 4
Wind_Direction
183 178 169 167 164 161 170 177 174 173 173 172 172 171 175 177 175 174 193 196 210 225 225 218 218 201 198 192 176 165 175 181 217 236 214 191 179 181 180 193 197 198 203
180 166 165 159 159 165 178 187 184 182 188 190 187 187 193 196 195 195 208 216 227 235 231 219 219 208 199 188 177 170 169 178 195 214 207 179 187 188 176 184 195 204 206
165 162 157 167 177 186 194 200 199 196 200 202 199 205 209 207 205 206 206 216 233 244 239 230 224 206 196 185 174 168 162 166 173 186 194 178 163 147 149 191 196 202 210
158 155 161 195 214 215 214 214 213 208 208 212 213 216 218 214 209 206 202 208 223 238 238 235 226 209 198 186 179 171 162 157 156 152 154 167 175 147 147 176 199 213 217
141 142 176 231 235 235 235 232 228 220 221 220 220 228 228 220 218 207 200 202 207 220 230 232 229 218 206 191 181 171 163 160 151 143 156 168 191 169 196 195 209 206 223
111 113 110 325 303 263 248 239 235 233 235 228 225 224 226 230 225 210 197 196 198 208 221 228 234 231 220 207 193 178 168 163 157 156 175 208 226 221 210 201 198 187 234
71 63 56 46 36 21 14 6 290 262 247 237 234 225 225 232 231 217 205 193 198 208 215 217 228 228 221 213 207 199 193 191 182 175 196 218 228 224 209 210 204 208 221
63 57 48 44 37 27 27 21 359 326 271 245 240 231 229 239 235 225 210 196 200 210 215 217 224 235 220 208 209 213 214 212 208 208 213 223 231 230 217 219 218 223 238
56 50 42 43 38 28 19 3 352 350 344 308 268 237 228 252 248 228 193 179 201 216 223 227 226 232 235 214 203 215 226 233 230 225 225 229 234 238 227 213 201 194 228
49 45 37 36 33 20 6 355 350 357 359 2 11 5 320 290 280 236 186 169 193 216 241 262 247 234 236 215 203 208 222 232 220 220 225 234 237 242 229 210 201 198 209
41 45 34 22 16 12 6 4 6 17 27 33 38 31 31 20 359 333 181 163 183 194 211 260 276 257 236 219 202 205 219 212 197 196 194 190 184 202 210 198 199 203 212
53 53 37 23 20 22 29 28 28 34 40 33 35 30 22 16 19 16 34 158 169 178 207 230 243 215 180 171 178 191 186 164 148 146 152 166 179 199 193 170 185 201 214
73 66 44 37 36 34 40 38 34 32 39 31 31 26 10 8 11 16 14 5 200 200 225 227 212 170 130 116 126 128 123 124 131 137 155 176 182 167 130 107 78 76 41
109 114 64 60 51 42 39 37 42 31 26 27 24 13 358 357 1 357 353 351 353 356 11 99 112 106 95 115 110 104 111 137 141 147 157 160 144 134 142 155 165 127 341
131 152 81 67 80 66 54 40 39 39 27 21 8 356 353 349 341 338 335 331 313 261 124 91 102 136 143 128 112 112 112 117 123 137 148 156 167 177 196 182 183 186 214
132 205 322 341 49 122 112 64 41 37 32 33 23 9 351 344 342 358 4 2 357 63 117 122 148 157 158 151 135 106 100 128 151 158 161 175 191 204 217 208 206 217 239
135 149 67 5 358 225 200 195 315 358 3 16 15 15 14 3 7 14 26 35 36 65 75 71 67 71 75 83 92 95 81 56 124 138 168 206 216 222 225 233 232 242 256
142 132 116 41 19 25 87 163 169 86 18 346 340 348 357 6 17 30 47 57 50 49 60 66 61 60 63 65 67 61 49 39 41 37 20 347 305 264 256 257 251 248 257
154 151 91 49 60 75 88 88 80 76 58 10 354 352 359 18 39 44 53 65 72 62 56 58 55 54 53 50 48 47 46 39 31 27 18 2 349 323 282 274 271 271 263
167 171 133 88 77 92 101 101 93 86 70 44 24 2 357 32 45 38 40 51 62 63 61 59 52 50 47 44 42 43 43 37 30 25 8 354 340 322 296 288 281 276 267
164 160 127 99 93 109 119 126 124 115 99 65 20 7 44 64 58 52 48 46 51 57 60 59 54 47 42 41 42 44 44 33 21 7 355 344 336 322 309 299 293 286 283
156 156 147 136 120 111 118 129 133 129 118 89 36 34 57 65 63 61 58 55 53 53 56 61 57 46 38 37 35 33 28 17 2 351 340 333 328 321 312 302 299 297 293
154 156 149 141 125 114 112 123 135 138 129 108 85 67 63 67 66 67 66 61 55 53 48 50 53 44 38 39 37 29 14 354 336 326 324 322 323 321 316 312 312 313 316
150 155 155 149 135 126 130 134 137 140 136 125 110 98 92 87 80 76 73 70 66 60 56 53 50 46 38 30 22 14 360 341 326 316 316 318 322 325 330 332 331 331 330
145 150 153 155 152 148 145 143 141 138 136 134 131 121 110 99 90 83 78 75 76 71 61 51 42 35 28 22 12 2 356 358 357 344 326 329 347 350 349 348 344 336 331
149 152 152 151 153 154 155 156 156 152 146 140 136 134 126 113 100 93 89 80 74 69 61 49 40 34 23 13 6 7 12 19 24 25 23 16 23 17 6 360 358 355 343
Height
1491 1492 1494 1495 1496 1497 1498 1499 1499 1499 1499 1499 1498 1498 1498 1498 1498 1498 1498 1498 1498 1499 1500 1501 1503 1505 1508 1511 1514 1517 1520 1523 1525 1528 1530 1532 1534 1535 1537 1538 1539 1539 1540
1491 1492 1493 1494 1496 1496 1497 1498 1498 1498 1498 1498 1497 1497 1497 1497 1497 1497 1496 1496 1496 1496 1496 1496 1497 1499 1502 1505 1508 1511 1514 1518 1521 1523 1526 1528 1530 1531 1533 1535 1536 1537 1537
1489 1491 1492 1494 1495 1496 1496 1497 1497 1497 1497 1497 1496 1496 1496 1496 1496 1496 1495 1495 1494 1493 1493 1493 1494 1495 1497 1499 1501 1504 1508 1511 1515 1519 1521 1524 1526 1528 1529 1531 1532 1533 1534
1487 1489 1491 1492 1493 1495 1495 1495 1495 1496 1496 1495 1495 1495 1495 1495 1495 1495 1495 1494 1493 1492 1492 1491 1492 1492 1493 1494 1496 1499 1502 1505 1509 1513 1517 1520 1522 1523 1525 1526 1527 1528 1530
1486 1488 1490 1490 1492 1493 1493 1493 1493 1494 1494 1494 1494 1494 1494 1494 1494 1494 1494 1493 1493 1492 1491 1491 1490 1490 1491 1492 1493 1495 1497 1499 1502 1507 1512 1515 1518 1519 1521 1522 1523 1524 1525
1484 1486 1487 1488 1490 1490 1490 1490 1490 1491 1491 1491 1491 1491 1491 1492 1492 1492 1492 1492 1492 1491 1491 1491 1490 1490 1490 1491 1491 1493 1494 1496 1498 1503 1507 1510 1513 1516 1517 1518 1519 1519 1519
1483 1485 1486 1487 1486 1486 1486 1487 1487 1487 1487 1488 1488 1488 1488 1489 1489 1490 1490 1490 1490 1490 1490 1490 1490 1490 1490 1491 1491 1493 1494 1496 1498 1501 1503 1506 1509 1511 1513 1513 1514 1514 1514
1484 1484 1484 1484 1484 1483 1483 1483 1483 1483 1483 1484 1484 1484 1484 1485 1486 1486 1487 1487 1488 1488 1489 1489 1489 1489 1490 1490 1491 1492 1493 1495 1496 1498 1500 1503 1505 1507 1508 1509 1509 1510 1510
1485 1485 1484 1483 1481 1480 1480 1479 1479 1478 1479 1479 1479 1480 1480 1481 1482 1483 1484 1484 1485 1486 1486 1487 1487 1488 1488 1489 1489 1490 1491 1492 1494 1496 1498 1499 1500 1502 1503 1503 1504 1504 1504
1487 1485 1484 1482 1480 1478 1477 1476 1476 1475 1475 1475 1475 1476 1477 1478 1478 1479 1480 1481 1481 1482 1483 1484 1485 1485 1486 1486 1487 1487 1488 1490 1491 1493 1494 1495 1496 1497 1498 1498 1499 1499 1499
1489 1487 1485 1482 1480 1479 1477 1476 1475 1475 1474 1474 1474 1474 1474 1475 1475 1476 1476 1477 1478 1478 1480 1481 1482 1483 1483 1484 1484 1485 1486 1487 1488 1490 1491 1491 1492 1493 1493 1494 1494 1494 1495
1492 1490 1487 1485 1483 1481 1480 1479 1478 1477 1476 1475 1475 1474 1474 1473 1473 1473 1473 1473 1473 1475 1476 1477 1478 1479 1480 1481 1481 1482 1483 1484 1485 1486 1487 1488 1489 1489 1489 1489 1490 1490 1490
1494 1492 1490 1488 1486 1484 1483 1482 1481 1480 1478 1477 1476 1475 1474 1473 1472 1471 1471 1470 1471 1472 1473 1474 1475 1476 1477 1478 1478 1479 1480 1481 1482 1483 1484 1485 1485 1486 1486 1486 1486 1486 1486
1495 1494 1492 1490 1488 1487 1485 1484 1483 1482 1480 1479 1477 1475 1474 1473 1472 1471 1470 1469 1469 1470 1470 1471 1472 1474 1475 1475 1476 1477 1477 1478 1479 1480 1481 1482 1482 1483 1483 1483 1483 1483 1483
1497 1495 1494 1492 1490 1489 1488 1486 1485 1483 1481 1479 1477 1476 1474 1473 1471 1470 1469 1468 1468 1469 1469 1470 1471 1472 1472 1473 1474 1475 1475 1476 1477 1478 1479 1479 1480 1480 1480 1480 1481 1480 1480
1498 1496 1495 1493 1492 1490 1489 1487 1486 1484 1482 1480 1478 1476 1474 1473 1471 1470 1469 1468 1468 1468 1469 1469 1469 1470 1471 1472 1473 1473 1474 1475 1476 1476 1477 1477 1477 1478 1478 1478 1478 1478 1477
1498 1497 1495 1494 1492 1491 1489 1488 1487 1485 1483 1481 1479 1477 1476 1474 1472 1471 1470 1469 1469 1469 1469 1469 1469 1470 1470 1471 1472 1473 1474 1474 1474 1475 1475 1475 1475 1475 1476 1476 1475 1475 1474
1498 1497 1496 1494 1493 1492 1490 1489 1488 1486 1485 1483 1481 1480 1478 1476 1475 1473 1472 1471 1471 1470 1470 1470 1470 1470 1471 1472 1473 1473 1473 1474 1474 1474 1474 1474 1474 1474 1473 1473 1473 1472 1471
1498 1497 1496 1495 1494 1493 1492 1491 1490 1488 1486 1485 1484 1482 1481 1479 1478 1476 1475 1474 1474 1473 1473 1473 1473 1473 1473 1473 1473 1473 1473 1473 1473 1473 1473 1472 1472 1472 1471 1470 1470 1469 1468
1498 1497 1497 1496 1495 1494 1493 1492 1491 1490 1489 1487 1486 1485 1484 1483 1481 1480 1479 1478 1477 1477 1476 1476 1475 1475 1474 1474 1474 1473 1473 1472 1472 1472 1471 1470 1470 1469 1468 1467 1466 1465 1464
1498 1497 1497 1497 1496 1495 1495 1494 1493 1492 1491 1490 1489 1488 1487 1485 1484 1483 1482 1481 1480 1479 1478 1478 1477 1476 1475 1475 1474 1473 1472 1472 1471 1470 1469 1468 1467 1466 1465 1464 1462 1461 1460
1497 1497 1497 1497 1497 1496 1496 1496 1495 1494 1493 1493 1492 1490 1489 1488 1487 1485 1484 1483 1482 1481 1480 1479 1478 1477 1476 1475 1474 1473 1472 1471 1469 1468 1467 1465 1464 1463 1462 1460 1459 1457 1456
1497 1497 1497 1497 1497 1497 1497 1496 1496 1496 1495 1494 1493 1492 1491 1490 1489 1487 1486 1484 1483 1482 1480 1479 1478 1477 1476 1475 1473 1472 1471 1469 1467 1466 1464 1463 1462 1460 1459 1457 1456 1454 1452
1496 1496 1497 1497 1497 1497 1497 1497 1497 1497 1496 1495 1495 1494 1493 1492 1490 1489 1487 1485 1484 1482 1481 1479 1478 1477 1475 1474 1472 1471 1469 1467 1465 1464 1462 1461 1459 1458 1456 1455 1453 1451 1449
1496 1496 1496 1496 1497 1497 1497 1497 1497 1497 1497 1496 1495 1495 1494 1492 1491 1489 1488 1486 1484 1483 1481 1479 1478 1477 1475 1473 1471 1470 1468 1466 1464 1462 1461 1459 1458 1456 1454 1452 1451 1449 1447
1495 1495 1495 1496 1496 1497 1497 1497 1497 1497 1497 1496 1495 1495 1494 1493 1491 1490 1488 1487 1485 1483 1482 1480 1479 1477 1475 1474 1472 1470 1468 1465 1463 1461 1460 1458 1456 1455 1453 1451 1449 1448 1446